When you browse on this site, cookies collect data to enhance your experience and personalize the content and advertising you see.
Visit our Privacy Policy to learn more. By continuing to use the site, you agree to this use of cookies and data.
  • In Österreich
  • Länderverzeichnis
  • Für 7 Tage
  • Wassertemperatur
  • Wetterkarte
  • News
  • Widgets
  • user-avatar
    Anmelden

    Stündliche Wetter Corozal

    Heute, 19 September, Donnerstag

    Zeit Temperatur Niederschläge Wind Luftdruck Luftfeuchtigkeit
    00:00 +24°C° 0 mm 0 m/S 758 mmHg 89%
    01:00 +26°C° 0 mm 1 m/S 758 mmHg 90%
    02:00 +26°C° 0 mm 1 m/S 757 mmHg 90%
    03:00 +26°C° 0 mm 1 m/S 757 mmHg 91%
    04:00 +25°C° 0 mm 1 m/S 757 mmHg 92%
    05:00 +25°C° 0 mm 1 m/S 757 mmHg 93%
    06:00 +25°C° 0 mm 2 m/S 757 mmHg 95%
    07:00 +27°C° 0.1 mm 2 m/S 758 mmHg 87%
    08:00 +29°C° 0.1 mm 2 m/S 758 mmHg 79%
    09:00 +31°C° 0.1 mm 2 m/S 758 mmHg 72%
    10:00 +32°C° 0.1 mm 2 m/S 758 mmHg 64%
    11:00 +34°C° 0.1 mm 1 m/S 757 mmHg 57%
    12:00 +35°C° 0.1 mm 1 m/S 757 mmHg 49%
    13:00 +36°C° 0 mm 2 m/S 756 mmHg 50%
    14:00 +36°C° 0 mm 2 m/S 755 mmHg 51%
    15:00 +36°C° 0 mm 3 m/S 755 mmHg 52%
    16:00 +34°C° 0.1 mm 3 m/S 755 mmHg 60%
    17:00 +31°C° 0.1 mm 3 m/S 755 mmHg 68%
    18:00 +29°C° 0.1 mm 3 m/S 755 mmHg 76%
    19:00 +29°C° 0 mm 3 m/S 756 mmHg 80%
    20:00 +28°C° 0 mm 3 m/S 756 mmHg 84%
    21:00 +27°C° 0 mm 3 m/S 757 mmHg 87%
    22:00 +27°C° 0 mm 2 m/S 757 mmHg 89%
    23:00 +27°C° 0 mm 2 m/S 757 mmHg 90%

    Morgen, 20 September, Freitag

    Zeit Temperatur Niederschläge Wind Luftdruck Luftfeuchtigkeit
    00:00 +26°C° 0 mm 2 m/S 757 mmHg 92%
    01:00 +26°C° 0.1 mm 2 m/S 757 mmHg 93%
    02:00 +26°C° 0.1 mm 2 m/S 757 mmHg 94%
    03:00 +25°C° 0.1 mm 2 m/S 757 mmHg 96%
    04:00 +25°C° 0.1 mm 1 m/S 757 mmHg 96%
    05:00 +25°C° 0.1 mm 1 m/S 757 mmHg 96%
    06:00 +25°C° 0.1 mm 1 m/S 757 mmHg 96%
    07:00 +27°C° 0.2 mm 1 m/S 757 mmHg 88%
    08:00 +29°C° 0.2 mm 1 m/S 758 mmHg 81%
    09:00 +31°C° 0.2 mm 2 m/S 758 mmHg 74%
    10:00 +32°C° 0.2 mm 2 m/S 758 mmHg 69%
    11:00 +32°C° 0.2 mm 2 m/S 758 mmHg 65%
    12:00 +34°C° 0.2 mm 2 m/S 757 mmHg 60%
    13:00 +34°C° 0.4 mm 2 m/S 757 mmHg 63%
    14:00 +34°C° 0.4 mm 2 m/S 756 mmHg 66%
    15:00 +32°C° 0.4 mm 2 m/S 756 mmHg 69%
    16:00 +31°C° 0.2 mm 2 m/S 756 mmHg 75%
    17:00 +29°C° 0.2 mm 2 m/S 756 mmHg 82%
    18:00 +28°C° 0.2 mm 2 m/S 756 mmHg 88%
    19:00 +27°C° 0 mm 2 m/S 757 mmHg 89%
    20:00 +27°C° 0 mm 2 m/S 757 mmHg 90%
    21:00 +26°C° 0 mm 2 m/S 758 mmHg 91%
    22:00 +26°C° 0 mm 2 m/S 758 mmHg 92%
    23:00 +26°C° 0 mm 1 m/S 758 mmHg 93%

    übermorgen, 21 September, Samstag

    Zeit Temperatur Niederschläge Wind Luftdruck Luftfeuchtigkeit
    00:00 +26°C° 0 mm 1 m/S 758 mmHg 93%
    01:00 +26°C° 0 mm 1 m/S 758 mmHg 94%
    02:00 +26°C° 0 mm 1 m/S 758 mmHg 94%
    03:00 +25°C° 0 mm 1 m/S 758 mmHg 95%
    04:00 +25°C° 0 mm 1 m/S 758 mmHg 95%
    05:00 +25°C° 0 mm 1 m/S 758 mmHg 96%
    06:00 +25°C° 0 mm 1 m/S 758 mmHg 96%
    07:00 +27°C° 0 mm 1 m/S 758 mmHg 87%
    08:00 +29°C° 0 mm 1 m/S 759 mmHg 78%
    09:00 +31°C° 0 mm 1 m/S 759 mmHg 70%
    10:00 +33°C° 0 mm 1 m/S 758 mmHg 63%
    11:00 +34°C° 0 mm 1 m/S 758 mmHg 57%
    12:00 +35°C° 0 mm 1 m/S 758 mmHg 51%
    13:00 +35°C° 0 mm 1 m/S 757 mmHg 51%
    14:00 +36°C° 0 mm 2 m/S 756 mmHg 51%
    15:00 +36°C° 0 mm 2 m/S 755 mmHg 51%
    16:00 +34°C° 0 mm 2 m/S 756 mmHg 61%
    17:00 +31°C° 0 mm 2 m/S 756 mmHg 70%
    18:00 +29°C° 0 mm 2 m/S 756 mmHg 80%
    19:00 +28°C° 0 mm 2 m/S 757 mmHg 83%
    20:00 +28°C° 0 mm 2 m/S 757 mmHg 85%
    21:00 +27°C° 0 mm 2 m/S 758 mmHg 88%
    22:00 +27°C° 0 mm 2 m/S 758 mmHg 89%
    23:00 +26°C° 0 mm 1 m/S 758 mmHg 91%

    22 September, Sonntag

    Zeit Temperatur Niederschläge Wind Luftdruck Luftfeuchtigkeit
    00:00 +26°C° 0 mm 1 m/S 758 mmHg 93%
    01:00 +26°C° 0.1 mm 1 m/S 758 mmHg 94%
    02:00 +26°C° 0.1 mm 1 m/S 757 mmHg 95%
    03:00 +25°C° 0.1 mm 1 m/S 757 mmHg 96%
    04:00 +25°C° 0 mm 1 m/S 757 mmHg 97%
    05:00 +25°C° 0 mm 1 m/S 757 mmHg 97%
    06:00 +25°C° 0 mm 1 m/S 758 mmHg 98%
    07:00 +25°C° 0 mm 0 m/S 758 mmHg 89%
    08:00 +28°C° 0 mm 0 m/S 758 mmHg 80%
    09:00 +30°C° 0 mm 0 m/S 759 mmHg 71%
    10:00 +31°C° 0 mm 0 m/S 759 mmHg 65%
    11:00 +34°C° 0 mm 1 m/S 758 mmHg 59%
    12:00 +35°C° 0 mm 1 m/S 758 mmHg 52%
    13:00 +35°C° 0 mm 1 m/S 757 mmHg 52%
    14:00 +36°C° 0 mm 2 m/S 756 mmHg 51%
    15:00 +36°C° 0 mm 2 m/S 755 mmHg 50%
    16:00 +34°C° 0 mm 2 m/S 756 mmHg 59%
    17:00 +31°C° 0 mm 2 m/S 756 mmHg 67%
    18:00 +29°C° 0 mm 2 m/S 756 mmHg 76%
    19:00 +28°C° 0 mm 2 m/S 757 mmHg 78%
    20:00 +28°C° 0 mm 2 m/S 758 mmHg 81%
    21:00 +27°C° 0 mm 2 m/S 758 mmHg 83%
    22:00 +27°C° 0 mm 2 m/S 758 mmHg 85%
    23:00 +26°C° 0 mm 2 m/S 758 mmHg 87%

    23 September, Montag

    Zeit Temperatur Niederschläge Wind Luftdruck Luftfeuchtigkeit
    00:00 +26°C° 0 mm 1 m/S 758 mmHg 89%
    01:00 +26°C° 0 mm 1 m/S 758 mmHg 91%
    02:00 +25°C° 0 mm 1 m/S 758 mmHg 92%
    03:00 +25°C° 0 mm 1 m/S 757 mmHg 94%
    04:00 +25°C° 0 mm 1 m/S 758 mmHg 95%
    05:00 +25°C° 0 mm 1 m/S 758 mmHg 95%
    06:00 +24°C° 0 mm 1 m/S 758 mmHg 96%
    07:00 +27°C° 0 mm 1 m/S 759 mmHg 86%
    08:00 +28°C° 0 mm 0 m/S 759 mmHg 76%
    09:00 +30°C° 0 mm 0 m/S 760 mmHg 66%
    10:00 +32°C° 0 mm 0 m/S 759 mmHg 60%
    11:00 +35°C° 0 mm 1 m/S 759 mmHg 54%
    12:00 +36°C° 0 mm 1 m/S 758 mmHg 48%
    13:00 +36°C° 0 mm 1 m/S 757 mmHg 49%
    14:00 +37°C° 0 mm 2 m/S 756 mmHg 50%
    15:00 +36°C° 0 mm 2 m/S 755 mmHg 50%
    16:00 +34°C° 0 mm 2 m/S 756 mmHg 59%
    17:00 +31°C° 0 mm 2 m/S 756 mmHg 67%
    18:00 +29°C° 0 mm 2 m/S 756 mmHg 75%
    19:00 +28°C° 0 mm 2 m/S 757 mmHg 78%
    20:00 +28°C° 0 mm 2 m/S 757 mmHg 81%
    21:00 +27°C° 0 mm 2 m/S 758 mmHg 83%
    22:00 +27°C° 0 mm 2 m/S 758 mmHg 85%
    23:00 +27°C° 0 mm 1 m/S 758 mmHg 87%

    24 September, Dienstag

    Zeit Temperatur Niederschläge Wind Luftdruck Luftfeuchtigkeit
    00:00 +26°C° 0 mm 1 m/S 758 mmHg 88%
    01:00 +26°C° 0.1 mm 1 m/S 757 mmHg 90%
    02:00 +26°C° 0.1 mm 1 m/S 757 mmHg 91%
    03:00 +25°C° 0.1 mm 1 m/S 757 mmHg 93%
    04:00 +25°C° 0 mm 1 m/S 757 mmHg 93%
    05:00 +25°C° 0 mm 1 m/S 757 mmHg 93%
    06:00 +23°C° 0 mm 0 m/S 758 mmHg 93%
    07:00 +26°C° 0 mm 0 m/S 758 mmHg 83%
    08:00 +28°C° 0 mm 0 m/S 758 mmHg 73%
    09:00 +33°C° 0 mm 1 m/S 758 mmHg 63%
    10:00 +34°C° 0 mm 1 m/S 758 mmHg 58%
    11:00 +35°C° 0 mm 1 m/S 757 mmHg 53%
    12:00 +37°C° 0 mm 1 m/S 757 mmHg 48%
    13:00 +37°C° 0 mm 2 m/S 756 mmHg 49%
    14:00 +37°C° 0 mm 2 m/S 755 mmHg 50%
    15:00 +36°C° 0 mm 2 m/S 755 mmHg 51%
    16:00 +35°C° 0 mm 2 m/S 755 mmHg 59%
    17:00 +32°C° 0 mm 2 m/S 755 mmHg 67%
    18:00 +30°C° 0 mm 2 m/S 756 mmHg 75%
    19:00 +29°C° 0 mm 2 m/S 756 mmHg 78%
    20:00 +28°C° 0 mm 2 m/S 757 mmHg 82%
    21:00 +28°C° 0 mm 2 m/S 757 mmHg 86%
    22:00 +27°C° 0.2 mm 1 m/S 757 mmHg 88%
    23:00 +27°C° 0.2 mm 1 m/S 757 mmHg 91%
    Mehr zeigen